Regional Weather Roundup
Issued by NWS

Home | Current Version | Previous Version | Graphics & Text | Print | Product List | Glossary Off
Versions: 1 2 3 4 5 6 7 8 9 10 11 12 13 14 15 16 17 18 19 20 21 22 23 24 25 26 27 28 29 30 31 32 33 34 35 36 37 38 39 40 41 42 43 44 45 46 47 48 49 50

000
ASUS43 KDTX 310210
RWRMI
MICHIGAN HOURLY REGIONAL WEATHER ROUNDUP
NATIONAL WEATHER SERVICE DETROIT/PONTIAC MI
1000 PM EDT SAT JUL 30 2016

NOTE: "FAIR" INDICATES FEW OR NO CLOUDS BELOW 12,000 FEET WITH NO
SIGNIFICANT WEATHER AND/OR OBSTRUCTION TO VISIBILITY.

MIZ047>049-052>055-059>063-066>070-074>076-081>083-310300-
SOUTHEAST LOWER MICHIGAN

CITY           SKY/WX    TMP DP  RH WIND       PRES   REMARKS
ADRIAN         HVY RAIN  69  68  96 N18G31    29.98F FOG
ALMA           CLOUDY    67  65  96 N8        30.03S
ANN ARBOR      LGT RAIN  70  69  97 CALM      29.99R
BAD AXE        RAIN      65  62  90 N5        30.04S
CARO           HVY RAIN  65  63  93 CALM      30.02S
DETROIT CITY   CLOUDY    72  66  81 N8        29.98S
DETROIT        CLOUDY    72  66  81 NE7       29.99R
FLINT          CLOUDY    71  64  78 N6        30.01S
GROSSE ILE     CLOUDY    72  67  87 NE9       29.96S
HILLSDALE      RAIN      68  66  92 NE3       30.00R
HOWELL         CLOUDY    67  65  93 N3        30.00S

CITY           SKY/WX    TMP DP  RH WIND       PRES   REMARKS
JACKSON        CLOUDY    70  68  93 NE5       30.00S
LAMBERTVILLE   CLOUDY    73  69  88 CALM      29.98R
LANSING        CLOUDY    67  63  87 N7        30.01S
LAPEER         MOCLDY    67  62  82 N5        30.01S
MASON          CLOUDY    67  63  85 N3        30.00S
MONROE         CLOUDY    72  70  93 N13       29.96S
MT. CLEMENS    CLOUDY    70  65  86 N6        29.97R
PONTIAC        CLOUDY    69  64  84 NE6       29.99S
PORT HOPE        N/A     71  63  75 NE12      30.02R
PORT HURON     CLOUDY    70  66  88 E3        29.99S
TRI CITIES     CLOUDY    67  65  93 NE6       30.03R
MIDLAND        CLOUDY    65  63  93 N3        30.03R
TROY           LGT RAIN  72  65  79 NE6       30.01S
SAGINAW HB     CLOUDY    64  63  94 NE6       30.02R
$$
MIZ043>046-050>051-056>058-064>065-071>073-077>080-310300-
SOUTHWEST LOWER MICHIGAN

CITY           SKY/WX    TMP DP  RH WIND       PRES   REMARKS
BATTLE CREEK   CLOUDY    67  66  97 NE7       30.01R
BENTON HARBOR  CLEAR     69  64  84 NE5       29.99R
BIG RAPIDS     CLOUDY    67  65  90 E5        30.04R
COLDWATER      MOCLDY    70  68  93 NE6       29.99S
FREMONT        CLOUDY    69  68  98 CALM      30.02S
HOLLAND        CLOUDY    71  64  78 E7        30.01S
GRAND RAPIDS   CLOUDY    68  63  84 NE7       30.02R
IONIA          CLOUDY    65  63  91 NE7       30.02S
KALAMAZOO      CLOUDY    70  64  81 CALM      30.00R
LUDINGTON      CLOUDY    67  64  90 CALM      30.02R FOG
MARSHALL       CLOUDY    69  67  94 CALM      29.99S
MOUNT PLEASANT CLOUDY    67  61  81 NE5       30.03R
MUSKEGON       MOCLDY    71  65  81 NE7       30.01S
SOUTH HAVEN    PTCLDY    67  65  93 CALM      30.00R
$$
MIZ016>042-310300-
NORTHERN LOWER MICHIGAN

CITY           SKY/WX    TMP DP  RH WIND       PRES   REMARKS
ALPENA         MOCLDY    64  55  72 CALM      30.07R
BEAVER ISLAND  CLEAR     67  58  73 E5        30.06S
BELLAIRE       CLEAR     66  49  53 CALM      30.04R
CADILLAC       MOCLDY    66  60  81 E5        30.05S
CHARLEVOIX     CLEAR     72  49  45 E9        30.08R
FRANKFORT      CLEAR     71  56  58 NE6       30.02R
GAYLORD        PTCLDY    68  45  43 E3        30.08R
GRAYLING       PTCLDY    69  56  62 E8        30.07R
HARBOR SPRINGS CLEAR     67  48  50 NE6       30.06S
HOUGHTON LAKE  MOCLDY    66  57  72 E6        30.07R
MANISTEE       MOCLDY    69  64  84 CALM      30.02R
OSCODA         CLOUDY    68  57  68 CALM      30.05R
PELLSTON       CLEAR     60  50  69 CALM      30.07S
ROGERS CITY    MOCLDY    66  55  66 NE3       30.08R
TRAVERSE CITY  PTCLDY    75  61  61 SE5       30.01R
$$
MIZ007>008-015-310300-
EASTERN UPPER MICHIGAN

CITY           SKY/WX    TMP DP  RH WIND       PRES   REMARKS
KINROSS        CLEAR     63  57  81 CALM      30.09R
MACKINAC ISLAN CLEAR     63  57  81 E6        30.08R
NEWBERRY       CLEAR     63  55  77 CALM      30.08S
S. S. MARIE    CLEAR     67  58  72 CALM      30.08R
MUNISING         N/A     64  58  80 CALM      30.06R
$$
MIZ004>006-011>014-085-310300-
CENTRAL UPPER MICHIGAN

CITY           SKY/WX    TMP DP  RH WIND       PRES   REMARKS
MANISTIQUE     CLEAR     64  56  76 CALM      30.06S
ESCANABA       CLEAR     64  54  68 NE3       30.04S
MENOMINEE      CLEAR    N/A N/A N/A N3        30.05R
SAWYER-GWINN   CLEAR     68  55  64 SE5       30.08R
$$
MIZ001>003-009>011-084-310300-
WESTERN UPPER MICHIGAN

CITY           SKY/WX    TMP DP  RH WIND       PRES   REMARKS
IRON MOUNTAIN  CLEAR     64  51  62 CALM      30.06R
HOUGHTON       CLEAR     64  56  75 E7        30.05S
COPPER HARBOR    N/A     66  57  72 VRB3      30.05R
IRONWOOD       CLEAR     66  63  88 E3        30.02R
$$

ABBREVIATIONS USED IN REMARKS
   TC - TEMPERATURE IN CELSIUS
  WCI - WIND CHILL INDEX
   HX - HEAT INDEX
  VSB - VISIBILITY





USA.gov is the U.S. government's official web portal to all federal, state and local government web resources and services.